STARLINK-4361, 53493

Orbit data source: Space-Track

STARLINK-4361, 53493 is a payload satellite owned by SpaceX/Seattle (US) in SSO that was launched on Fri, 12 Aug 2022 UTC via an FALCON 9 launch vehicle from the Air Force Western Test Range (AFWTR). Payload-class satellites include a variety of spacecraft equipped with specific instruments for various scientific and technological missions. These include communications satellites like Starlink; space stations such as the ISS; scientific satellites like the Hubble; Earth observation satellites from companies like Planet Labs, Umbra, and HawkEye 360; GPS; miniature CubeSats for education and research; and military/defense satellites.

Loading next visibility...
Identifier
53493, 2022-099AE
Orbit
SSO
Country
Flag of USUS
Related business
Manufacturer
SpaceX/Seattle
Mission
Partially operational Commercial Communications
Bus & Motor
STARLINK, Unknown motor
Mass
300 kg wet, ~275 kg dry
Launch date (UTC)
2022-08-12 (3 years ago)
Launch vehicle
FALCON 9
Launch site
Air Force Western Test Range (AFWTR)
Object type
Payload
Rocket body
Debris
Shape & HBR
Box + 1 Pan, 10.1 m
Radar Cross Section
13.562 m², Large (>1 m²)

Expand to show TLE details & history
Last TLE update: 6 hours ago

TLE from 6 hours ago
0 STARLINK-4361
1 53493U 22099AE  25308.33336806  .01079071  00000-0  12056-1 0  9996
2 53493  97.6561  69.7689 0001063  79.0874 276.4007 15.60187936  5816
Epoch: 2025-11-04T08:00Z
TLE epoch observation values (Epoch: 2025-11-04T08:00:03.000Z)
Latitude
-4.63785°
Longitude
-93.44417°
Altitude
390.89 km
Speed
7.675 km/s
True Right ascension
04h 41m 33s
True Declination
-4° 36' 31"
Sunlit
Object was in full shadow at epoch
Visualization orbit readout
Latitude
Unknown
Longitude
Unknown
Altitude
Unknown
Speed
Unknown
Apparent Right ascension
Unknown
Apparent Declination
Unknown
Sunlit
N/A
Visualization observer readout
Local Sidereal Time
09:47:31
Azimuth
Unknown
Elevation
Unknown
Doppler factor
Unknown
Orbital elements
Apogee altitude
384.756 km
Perigee altitude
383.318 km
Semi-major axis
6,762.174 km
Eccentricity
0.00011
Inclination
97.6561°
RAAN
69.7689°
Arg. of periapsis
79.0874°
True anomaly
276.38859°
Mean anomaly
276.4007°
Eccentric anomaly
276.39465°
Mean motion
3.90314 °/min
Orbital period
92.23 mins
BSTAR
0.012056
Loading maneuver chart data...
Computing Atmospheric mass density...
Loading historical data...
Loading historical data...
Loading historical data...
Loading historical data...
Loading historical data...
Loading historical data...
Loading historical data...

Documentation

Showing up to 5 results
|